| time (UTC) | temp F | wind direction | speed knots | gust knots | rain 1hr in | rain 24hr in | rain mn in | humidity % | barometer mb |
| 20260506191543 | 47 | 284 | 0.0 | 7.8 | 0.00 | 0.00 | 0.00 | 99 | 1008.4 |
| 20260506190039 | 46 | 292 | 0.0 | 5.2 | 0.00 | 0.00 | 0.00 | 99 | 1008.3 |
| 20260506184548 | 46 | 288 | 0.9 | 5.2 | 0.00 | 0.00 | 0.00 | 98 | 1008.1 |
| 20260506183040 | 46 | 287 | 1.7 | 4.3 | 0.00 | 0.00 | 0.00 | 99 | 1007.9 |
| 20260506181537 | 47 | 286 | 0.0 | 0.0 | 0.00 | 0.00 | 0.00 | 99 | 1007.8 |
| 20260506180036 | 46 | 286 | 0.0 | 5.2 | 0.00 | 0.00 | 0.00 | 99 | 1007.8 |
| 20260506174535 | 46 | 289 | 0.9 | 4.3 | 0.00 | 0.00 | 0.00 | 98 | 1007.9 |
| 20260506173040 | 46 | 278 | 0.0 | 1.7 | 0.00 | 0.00 | 0.00 | 98 | 1007.7 |
| 20260506171543 | 46 | 278 | 0.0 | 1.7 | 0.00 | 0.00 | 0.00 | 98 | 1007.9 |
| 20260506170033 | 46 | 278 | 0.0 | 0.0 | 0.00 | 0.00 | 0.00 | 98 | 1008.0 |
| 20260506164532 | 46 | 278 | 0.0 | 0.0 | 0.00 | 0.00 | 0.00 | 99 | 1008.1 |
| 20260506163041 | 46 | 278 | 0.0 | 0.9 | 0.00 | 0.00 | 0.00 | 98 | 1008.1 |
| 20260506161535 | 46 | 278 | 0.0 | 1.7 | 0.00 | 0.00 | 0.00 | 98 | 1008.4 |
| 20260506160033 | 46 | 278 | 0.0 | 0.0 | 0.00 | 0.00 | 0.00 | 98 | 1008.1 |
| 20260506154536 | 46 | 278 | 0.0 | 3.5 | 0.00 | 0.00 | 0.00 | 98 | 1008.3 |
| 20260506153029 | 46 | 277 | 0.0 | 2.6 | 0.00 | 0.00 | 0.00 | 98 | 1008.0 |
| 20260506151527 | 47 | 277 | 0.0 | 0.0 | 0.00 | 0.00 | 0.00 | 98 | 1008.0 |
| 20260506150028 | 47 | 277 | 0.0 | 0.0 | 0.00 | 0.00 | 0.00 | 99 | 1008.0 |
| 20260506144525 | 47 | 277 | 0.0 | 0.0 | 0.00 | 0.00 | 0.00 | 98 | 1007.9 |
| 20260506143024 | 48 | 277 | 0.0 | 0.0 | 0.00 | 0.00 | 0.00 | 98 | 1008.2 |
| 20260506141523 | 48 | 277 | 0.0 | 0.0 | 0.00 | 0.00 | 0.00 | 98 | 1008.0 |
| 20260506140024 | 48 | 277 | 0.0 | 2.6 | 0.00 | 0.00 | 0.00 | 99 | 1008.3 |
| 20260506134522 | 48 | 277 | 0.0 | 3.5 | 0.00 | 0.00 | 0.00 | 98 | 1008.1 |
| 20260506133021 | 48 | 277 | 0.0 | 3.5 | 0.00 | 0.00 | 0.00 | 98 | 1008.1 |
| 20260506131521 | 48 | 277 | 0.0 | 0.0 | 0.00 | 0.00 | 0.00 | 98 | 1007.8 |
| 20260506130019 | 48 | 277 | 0.0 | 0.0 | 0.00 | 0.00 | 0.00 | 98 | 1007.6 |
| 20260506124518 | 49 | 277 | 0.0 | 0.0 | 0.00 | 0.00 | 0.00 | 99 | 1007.8 |
| 20260506123018 | 48 | 277 | 0.0 | 0.0 | 0.00 | 0.00 | 0.00 | 99 | 1008.0 |
| 20260506121515 | 48 | 277 | 0.0 | 0.0 | 0.00 | 0.00 | 0.00 | 98 | 1008.2 |
| 20260506120014 | 48 | 277 | 0.0 | 0.0 | 0.00 | 0.00 | 0.00 | 98 | 1008.3 |
| 20260506114513 | 48 | 277 | 0.0 | 2.6 | 0.00 | 0.00 | 0.00 | 98 | 1008.6 |
| 20260506113015 | 48 | 277 | 0.0 | 1.7 | 0.00 | 0.00 | 0.00 | 98 | 1008.7 |
| 20260506111511 | 49 | 277 | 0.0 | 0.9 | 0.00 | 0.00 | 0.00 | 98 | 1008.7 |
| 20260506110011 | 49 | 277 | 0.0 | 0.0 | 0.00 | 0.00 | 0.00 | 98 | 1008.5 |
| 20260506104510 | 49 | 277 | 0.0 | 0.0 | 0.00 | 0.00 | 0.00 | 98 | 1008.4 |
| 20260506103013 | 49 | 61 | 1.7 | 6.1 | 0.00 | 0.00 | 0.00 | 98 | 1008.3 |
| 20260506101508 | 49 | 322 | 0.0 | 0.0 | 0.00 | 0.00 | 0.00 | 98 | 1008.3 |
| 20260506100006 | 49 | 322 | 0.0 | 0.0 | 0.00 | 0.00 | 0.00 | 98 | 1008.6 |
| 20260506094506 | 49 | 322 | 0.0 | 0.0 | 0.00 | 0.00 | 0.00 | 98 | 1008.5 |
| 20260506093011 | 49 | 24 | 0.9 | 7.0 | 0.00 | 0.00 | 0.00 | 98 | 1008.6 |
| 20260506091505 | 49 | 290 | 0.0 | 2.6 | 0.00 | 0.00 | 0.00 | 98 | 1008.7 |
| 20260506090003 | 49 | 290 | 0.0 | 0.0 | 0.00 | 0.00 | 0.00 | 98 | 1008.5 |
| 20260506084508 | 49 | 290 | 0.0 | 0.0 | 0.00 | 0.00 | 0.00 | 98 | 1008.3 |
| 20260506083001 | 49 | 290 | 0.0 | 0.0 | 0.00 | 0.00 | 0.00 | 98 | 1008.4 |
| 20260506081504 | 49 | 290 | 0.0 | 0.0 | 0.00 | 0.00 | 0.00 | 98 | 1008.5 |
| 20260506080112 | 49 | 290 | 0.0 | 0.0 | 0.00 | 0.00 | 0.00 | 97 | 1008.9 |
| 20260506073110 | 49 | 290 | 0.0 | 2.6 | 0.00 | 0.00 | 0.00 | 98 | 1009.9 |
| 20260506071554 | 50 | 290 | 0.0 | 0.0 | 0.00 | 0.00 | 0.00 | 98 | 1009.2 |
| 20260506061559 | 50 | 290 | 0.0 | 0.0 | 0.00 | 0.00 | 0.00 | 97 | 1010.0 |
| 20260506044540 | 51 | 290 | 0.0 | 2.6 | 0.00 | 0.00 | 0.00 | 96 | 1010.5 |
| 20260506043037 | 52 | 290 | 0.0 | 0.9 | 0.00 | 0.00 | 0.00 | 96 | 1010.7 |
| 20260506041535 | 52 | 290 | 0.0 | 0.9 | 0.00 | 0.00 | 0.00 | 96 | 1010.8 |
| 20260506040032 | 52 | 290 | 0.0 | 0.0 | 0.00 | 0.00 | 0.00 | 96 | 1010.8 |
| 20260506034532 | 52 | 290 | 0.0 | 0.0 | 0.00 | 0.00 | 0.00 | 96 | 1010.7 |
| 20260506033034 | 52 | 290 | 0.0 | 0.0 | 0.00 | 0.00 | 0.00 | 95 | 1010.5 |
| 20260506031532 | 53 | 290 | 0.0 | 2.6 | 0.00 | 0.00 | 0.00 | 95 | 1010.6 |
| 20260506030029 | 53 | 290 | 0.0 | 0.0 | 0.00 | 0.00 | 0.00 | 94 | 1010.6 |
| 20260506024527 | 53 | 290 | 0.0 | 0.0 | 0.00 | 0.00 | 0.00 | 94 | 1010.5 |
| 20260506023026 | 53 | 290 | 0.0 | 0.0 | 0.00 | 0.00 | 0.00 | 94 | 1010.8 |
| 20260506021525 | 53 | 290 | 0.0 | 0.0 | 0.00 | 0.00 | 0.00 | 94 | 1010.3 |
| 20260506020042 | 53 | 290 | 0.0 | 0.0 | 0.00 | 0.00 | 0.00 | 94 | 1010.5 |
| 20260506014524 | 53 | 290 | 0.0 | 0.0 | 0.00 | 0.00 | 0.00 | 93 | 1010.1 |
| 20260506013021 | 54 | 290 | 0.0 | 0.9 | 0.00 | 0.00 | 0.00 | 92 | 1010.3 |
| 20260506011523 | 54 | 289 | 0.0 | 5.2 | 0.00 | 0.00 | 0.00 | 91 | 1010.2 |
| 20260506010116 | 55 | 287 | 0.9 | 4.3 | 0.00 | 0.00 | 0.00 | 89 | 1009.8 |
| 20260506004522 | 57 | 321 | 0.0 | 1.7 | 0.00 | 0.00 | 0.00 | 86 | 1009.1 |
| 20260506003012 | 59 | 302 | 0.9 | 7.0 | 0.00 | 0.00 | 0.00 | 84 | 1009.3 |
| 20260506001509 | 60 | 277 | 1.7 | 7.0 | 0.00 | 0.00 | 0.00 | 83 | 1008.6 |
| 20260506000006 | 61 | 311 | 1.7 | 8.7 | 0.00 | 0.00 | 0.00 | 88 | 1008.2 |
| 20260505234503 | 61 | 135 | 0.0 | 0.0 | 0.00 | 0.00 | 0.00 | 91 | 1007.5 |
| 20260505233002 | 62 | 135 | 0.0 | 0.0 | 0.00 | 0.00 | 0.00 | 91 | 1007.3 |
| 20260505231502 | 62 | 135 | 0.0 | 1.7 | 0.00 | 0.00 | 0.00 | 90 | 1007.3 |
| 20260505230005 | 62 | 135 | 0.0 | 0.9 | 0.00 | 0.00 | 0.00 | 89 | 1007.1 |
| 20260505224501 | 63 | 134 | 0.0 | 0.0 | 0.00 | 0.00 | 0.00 | 88 | 1007.1 |
| 20260505223001 | 63 | 134 | 0.0 | 1.7 | 0.00 | 0.00 | 0.00 | 87 | 1006.9 |
| 20260505221501 | 63 | 134 | 0.0 | 1.7 | 0.00 | 0.00 | 0.00 | 88 | 1006.6 |
| 20260505220109 | 62 | 135 | 0.0 | 0.0 | 0.00 | 0.00 | 0.00 | 88 | 1006.5 |
| 20260505214612 | 62 | 134 | 0.0 | 0.0 | 0.00 | 0.00 | 0.00 | 89 | 1006.5 |
| 20260505213059 | 61 | 134 | 0.0 | 4.3 | 0.00 | 0.00 | 0.00 | 89 | 1006.7 |
| 20260505211636 | 61 | 128 | 0.0 | 2.6 | 0.00 | 0.00 | 0.00 | 92 | 1007.1 |
| 20260505210058 | 60 | 128 | 0.0 | 0.0 | 0.00 | 0.00 | 0.00 | 90 | 1007.2 |
| 20260505204605 | 61 | 128 | 0.0 | 0.9 | 0.00 | 0.00 | 0.00 | 89 | 1006.7 |
| 20260505203059 | 60 | 128 | 0.0 | 3.5 | 0.00 | 0.00 | 0.00 | 89 | 1006.7 |
| 20260505201557 | 59 | 261 | 0.0 | 4.3 | 0.00 | 0.00 | 0.00 | 91 | 1006.9 |
| 20260505200055 | 60 | 284 | 0.0 | 11.3 | 0.00 | 0.00 | 0.00 | 88 | 1007.4 |
| 20260505194553 | 61 | 282 | 6.1 | 18.2 | 0.00 | 0.00 | 0.00 | 82 | 1007.2 |
| 20260505193051 | 65 | 309 | 6.1 | 15.6 | 0.00 | 0.00 | 0.00 | 77 | 1007.0 |